This demonstration page uses our WeatherBlox Daily Observations layout. Learn more.

38.89511, -77.03637

Hourly Observations for February 4, 2015

Temp ( °F °C ) Dew Point ( °F °C ) Humidity (%) Winds ( mph kmh ) Pressure ( in mb ) Visibility ( mi km ) Precip ( " mm )
1:52 am 01:52 Mostly Cloudy 30 -1.1 19 -7.2 64 64 S 7 11 30.3 1026 10 16.0934 0 0
2:52 am 02:52 Mostly Cloudy 31 -0.6 19 -7.2 61 61 SSW 6 9 30.29 1026 10 16.0934 0 0
3:52 am 03:52 Cloudy 32 0 20 -6.7 61 61 S 8 13 30.25 1025 10 16.0934 0 0
4:52 am 04:52 Cloudy 31 -0.6 19 -7.2 61 61 SSW 5 7 30.24 1024 10 16.0934 0 0
5:52 am 05:52 Mostly Cloudy 31 -0.6 18 -7.8 59 59 SSW 6 9 30.25 1025 10 16.0934 0 0
6:52 am 06:52 Mostly Cloudy 31 -0.6 19 -7.2 61 61 SSW 7 11 30.25 1025 10 16.0934 0 0
7:52 am 07:52 Mostly Cloudy 33 0.6 19 -7.2 56 56 S 6 9 30.25 1024 10 16.0934 0 0
8:52 am 08:52 Mostly Cloudy 35 1.7 20 -6.7 54 54 S 7 11 30.24 1024 10 16.0934 0 0
9:52 am 09:52 Mostly Cloudy 37 2.8 21 -6.1 52 52 S 8 13 30.24 1024 10 16.0934 0 0
10:52 am 10:52 Cloudy 39 3.9 22 -5.6 50 50 SSE 10 17 30.22 1023 10 16.0934 0 0
11:52 am 11:52 Cloudy 43 6.1 23 -5 45 45 SSE 9 15 30.19 1022 10 16.0934 0 0
12:52 pm 12:52 Cloudy 47 8.3 23 -5 39 39 SSE 8 13 30.14 1021 10 16.0934 0 0
1:52 pm 13:52 Mostly Cloudy 51 10.6 24 -4.4 35 35 S 10 17 30.08 1019 10 16.0934 0 0
2:52 pm 14:52 Cloudy 53 11.7 24 -4.4 32 32 S 7 11 30.05 1018 10 16.0934 0 0
3:52 pm 15:52 Cloudy 53 11.7 26 -3.3 35 35 S 10 17 30.03 1017 10 16.0934 0 0
4:52 pm 16:52 Cloudy 51 10.6 27 -2.8 39 39 S 13 20 30.02 1017 10 16.0934 0 0
5:52 pm 17:52 Mostly Cloudy 49 9.4 26 -3.3 41 41 S 10 17 30.01 1016 10 16.0934 0 0
6:52 pm 18:52 Mostly Cloudy 48 8.9 26 -3.3 42 42 S 9 15 30 1016 10 16.0934 0 0
7:52 pm 19:52 Mostly Cloudy 45 7.2 27 -2.8 49 49 S 10 17 30 1016 10 16.0934 0 0
8:52 pm 20:52 Cloudy 49 9.4 23 -5 36 36 SSW 14 22 29.98 1015 10 16.0934 0 0
9:52 pm 21:52 Cloudy 49 9.4 23 -5 36 36 SSW 15 24 29.96 1015 10 16.0934 0 0
10:52 pm 22:52 Mostly Cloudy 47 8.3 23 -5 39 39 SSW 10 17 29.95 1014 10 16.0934 0 0
11:52 pm 23:52 Mostly Cloudy 42 5.6 26 -3.3 53 53 S 9 15 29.93 1013 10 16.0934 0 0

Powered by AerisWeather